Winfield, KS

2:38 AM CST on December 11, 2019 (GMT -0600)
Strother

Weather History for KWLD - November, 2019

Change the Weather History Date:

Tuesday, November 12, 2019

  Actual Average Record
Temperature  
Mean Temperature 20 °F -  
Max Temperature 32 °F 56 °F 80 °F (2005)
Min Temperature 9 °F 37 °F 19 °F (2014)
Degree Days  
Heating Degree Days 44    
Moisture  
Dew Point 7 °F    
Average Humidity 59    
Maximum Humidity 84    
Minimum Humidity 34    
Precipitation  
Precipitation 0.00 in - - ()
Sea Level Pressure  
Sea Level Pressure 30.57 in    
Wind  
Wind Speed 7 mph ()    
Max Wind Speed 15 mph    
Max Gust Speed -    
Visibility 10.0 miles    
Events      
Averages and records for this station are not official NWS values.
T = Trace of Precipitation, MM = Missing Value Source: Averaged Metar Reports

Daily Weather History Graph

Daily Weather History Graph

Search for Another Location

Airport or City:

Astronomy

Nov. 12, 2019 Rise Set
Actual Time 7:03 AM CST 5:20 PM CST
Civil Twilight 6:36 AM CST 5:47 PM CST
Nautical Twilight 6:04 AM CST 6:19 PM CST
Astronomical Twilight 5:34 AM CST 6:49 PM CST
Moon 5:47 PM CST (11/12) 6:57 AM CST (11/12)
Length of Visible Light 11h 11m
Length of Day
10h 16m
Full, 100% of the Moon is Illuminated
Nov 12
Full
Nov 19
Last Quarter
Nov 26
New
Dec 4
First Quarter
Dec 11
Full

Hourly Weather History & Observations

Time (CST) Temp. Windchill Dew Point Humidity Pressure Visibility Wind Dir Wind Speed Gust Speed Precip Events Conditions
12:54 AM 14.0 °F 2.0 °F 7.0 °F 74% 30.76 in 10.0 mi North 9.2 mph - N/A   Clear
1:54 AM 12.9 °F 1.6 °F 7.0 °F 77% 30.76 in 10.0 mi NNW 8.1 mph - N/A   Clear
2:54 AM 10.9 °F 0.2 °F 6.1 °F 81% 30.76 in 10.0 mi NNW 6.9 mph - N/A   Clear
3:54 AM 10.0 °F -0.9 °F 5.0 °F 80% 30.76 in 10.0 mi NNW 6.9 mph - N/A   Clear
6:54 AM 9.0 °F 0.6 °F 5.0 °F 84% 30.74 in 10.0 mi NNW 4.6 mph - N/A   Clear
7:54 AM 12.9 °F - 7.0 °F 77% 30.75 in 10.0 mi Calm Calm - N/A   Clear
8:54 AM 16.0 °F 10.4 °F 6.1 °F 65% 30.74 in 10.0 mi NE 3.5 mph - N/A   Clear
9:54 AM 19.0 °F 13.9 °F 8.1 °F 62% 30.71 in 10.0 mi ESE 3.5 mph - N/A   Clear
11:54 AM 25.0 °F - 7.0 °F 46% 30.67 in 10.0 mi North - - N/A   Clear
12:54 PM 28.0 °F 22.8 °F 7.0 °F 41% 30.61 in 10.0 mi Variable 4.6 mph - N/A   Clear
1:54 PM 30.9 °F 23.5 °F 7.0 °F 37% 30.55 in 10.0 mi SW 8.1 mph - N/A   Clear
2:54 PM 32.0 °F 23.6 °F 6.1 °F 34% 30.50 in 10.0 mi SSE 10.4 mph - N/A   Clear
4:54 PM 30.0 °F 20.0 °F 5.0 °F 35% 30.45 in 10.0 mi South 12.7 mph - N/A   Clear
5:54 PM 25.0 °F 15.5 °F 8.1 °F 49% 30.44 in 10.0 mi South 9.2 mph - N/A   Clear
6:54 PM 23.0 °F 13.9 °F 8.1 °F 53% 30.43 in 10.0 mi South 8.1 mph - N/A   Clear
7:54 PM 19.9 °F 11.1 °F 9.0 °F 62% 30.42 in 10.0 mi SSE 6.9 mph - N/A   Clear
8:54 PM 24.1 °F 13.1 °F 9.0 °F 53% 30.37 in 10.0 mi SSE 11.5 mph - N/A   Clear
9:54 PM 24.1 °F 12.5 °F 9.0 °F 53% 30.35 in 10.0 mi South 12.7 mph - N/A   Clear
10:54 PM 24.1 °F 11.5 °F 10.0 °F 55% 30.31 in 10.0 mi South 15.0 mph - N/A   Clear
11:54 PM 23.0 °F 10.6 °F 10.0 °F 58% 30.28 in 10.0 mi South 13.8 mph - N/A   Clear